[[{"header":{"parameterUnit":"m.s-1","parameterCategory":1,"la1":30.2991,"la2":30.254,"lo1":-89.0895,"lo2":-89.0444,"dy":0.0017,"dx":0.0017,"nx":28,"ny":28,"refTime":"2023-10-05T09:00:00:Z","depth":0,"parameterNumber":2,"parameterNumberName":"U-component_of_WINDS"},"data":[0,0,0,0,0,0,0,0,0,0,0,0,0,0,0,0,0,0,0,0,0,0,0,0,0,0,0,0,0,0,0,0,0,0,0,0,0,0,0,0,0,0,0,0,0,0,0,0,0,0,0,0,0,0,0,0,0,0,-3.1605,-3.1605,0,-3.16,-3.16,-3.16,-3.1454,-3.145,-3.1446,-3.1443,-3.1438,-3.1442,-3.1445,0,0,0,0,0,0,0,0,0,0,0,0,0,-3.1486,-3.1489,-3.1605,-3.1605,-3.1604,-3.16,-3.16,-3.16,-3.1454,-3.145,-3.1445,-3.1441,-3.1437,-3.1441,-3.1445,0,0,0,0,0,0,0,0,0,0,0,0,0,-3.1516,-3.149,-3.1605,-3.1531,-3.1525,-3.16,-3.16,-3.16,-3.1455,-3.145,-3.1444,-3.1439,-3.1436,-3.1441,-3.1446,-3.1591,0,0,-3.1461,-3.1464,0,0,0,0,0,0,0,0,-3.1514,-3.152,-3.1542,-3.1536,-3.1529,-3.1522,-3.1557,-3.1597,-3.1457,-3.1482,-3.1442,-3.1436,-3.1471,-3.1472,-3.1484,-3.1591,-3.1591,-3.1462,-3.1465,-3.1467,-3.1469,0,0,0,0,0,0,0,-3.1512,-3.1519,-3.1603,-3.1543,-3.1535,-3.1498,-3.1496,-3.1564,-3.1508,-3.1479,-3.1468,-3.147,-3.1466,-3.148,-3.1483,-3.1591,-3.1462,-3.1466,-3.1469,-3.1471,-3.1818,-3.1823,0,0,0,0,0,0,-3.152,-3.1519,-3.1603,-3.1603,-3.1507,-3.1505,-3.1503,-3.153,-3.1507,-3.1498,-3.1475,-3.1463,-3.1474,-3.1477,-3.1482,-3.1651,-3.1467,-3.1472,-3.1475,-3.1811,-3.1819,-3.1825,0,0,0,0,0,0,-3.1518,-3.1529,-3.1603,-3.1558,-3.1564,-3.1513,-3.1545,-3.1533,-3.1546,-3.1504,-3.1493,-3.1499,-3.1469,-3.1475,-3.1565,-3.1649,-3.1474,-3.1479,-3.1804,-3.1814,-3.1822,-3.1991,0,0,0,0,0,0,-3.1516,-3.1529,-3.1584,-3.156,-3.1567,-3.1687,-3.155,-3.1537,-3.1555,-3.154,-3.1524,-3.1515,-3.1465,-3.1559,-3.1571,-3.1653,-3.1483,-3.1796,-3.1808,-3.1819,-3.1978,-3.2005,-3.2028,0,0,0,0,0,-3.1512,-3.1632,-3.1588,-3.1599,-3.1635,-3.1692,-3.1696,-3.1636,-3.1563,-3.1617,-3.159,-3.1516,-3.1638,-3.1569,-3.1581,-3.1667,-3.1791,-3.1805,-3.1818,-3.1966,-3.1999,-3.2027,0,0,0,0,0,0,-3.1666,-3.1627,-3.1578,-3.1693,-3.1697,-3.1667,-3.1734,-3.1673,-3.1697,-3.1682,-3.1606,-3.1604,-3.1706,-3.1695,-3.1619,-3.1807,-3.1702,-3.1718,-3.181,-3.1841,-3.1866,-3.1866,-3.1487,0,0,0,0,0,-3.1714,-3.1764,-3.1727,-3.1832,-3.1837,-3.1786,-3.1808,-3.1762,-3.1762,-3.1763,-3.1742,-3.1746,-3.1785,-3.1812,-3.1846,-3.1976,-3.197,-3.204,-3.2066,-3.2086,-3.2102,-3.217,-3.2201,-3.1871,-3.1871,-3.187,0,0,-3.1813,-3.1797,-3.1833,-3.1863,-3.186,-3.1914,-3.1788,-3.1849,-3.1888,-3.1772,-3.1856,-3.1842,-3.1841,-3.1952,-3.1999,-3.1946,-3.2192,-3.2104,-3.2121,-3.2125,-3.2187,-3.2219,-3.2246,-3.188,-3.1878,-3.1877,0,0,-3.2019,-3.2013,-3.21,-3.2101,-3.2098,-3.2064,-3.2085,-3.2065,-3.2051,-3.2134,-3.2048,-3.2094,-3.2162,-3.2165,-3.2176,-3.2386,-3.2318,-3.2399,-3.253,-3.2597,-3.2623,-3.2646,-3.2721,-3.2749,-3.2414,-3.2415,-3.2415,0,-3.2142,-3.2219,-3.2153,-3.222,-3.2236,-3.2135,-3.2223,-3.2226,-3.2235,-3.2249,-3.2188,-3.2273,-3.2265,-3.2376,-3.2427,-3.2439,-3.2461,-3.24,-3.2625,-3.2647,-3.2667,-3.2738,-3.2766,-3.2425,-3.2423,-3.2422,-3.2422,0,-3.237,-3.2425,-3.2496,-3.2508,-3.2531,-3.2609,-3.2555,-3.2587,-3.2539,-3.2511,-3.2598,-3.2585,-3.2614,-3.2637,-3.2591,-3.2742,-3.2708,-3.2638,-3.2531,-3.271,-3.2775,-3.2801,-3.2439,-3.2435,-3.2432,-3.243,0,0,-3.2673,-3.2648,-3.2675,-3.268,-3.2671,-3.2712,-3.2785,-3.2814,-3.2843,-3.2853,-3.2913,-3.2974,-3.2909,-3.2922,-3.2875,-3.2934,-3.3101,-3.2856,-3.2855,-3.2902,-3.3267,-3.332,-3.3352,-3.3057,-3.3062,-3.3066,-3.3267,0,-3.2872,-3.2996,-3.294,-3.307,-3.312,-3.3025,-3.3088,-3.309,-3.3066,-3.3105,-3.3078,-3.3123,-3.3034,-3.3041,-3.3096,-3.307,-3.3174,-3.3054,-3.3112,-3.3115,-3.3115,-3.3386,-3.3442,-3.3633,-3.3292,-3.3296,-3.3299,0,-3.3122,-3.3143,-3.3279,-3.3261,-3.328,-3.3338,-3.3361,-3.3399,-3.34,-3.3378,-3.3393,-3.3333,-3.3403,-3.3298,-3.3395,-3.3315,-3.3335,-3.3326,-3.3332,-3.3335,-3.3218,-3.3396,-3.3692,-3.3721,-3.3339,-3.3336,-3.3333,0,-3.3329,-3.3392,-3.348,-3.3487,-3.3469,-3.3513,-3.3507,-3.3502,-3.3523,-3.3543,-3.3556,-3.3585,-3.36,-3.3623,-3.3573,-3.35,-3.3677,-3.3567,-3.3661,-3.3662,-3.3701,-3.37,-3.4005,-3.3716,-3.3715,-3.3715,-3.3714,0,-3.3558,-3.3644,-3.3573,-3.3628,-3.3723,-3.3657,-3.3752,-3.3736,-3.3733,-3.3783,-3.3703,-3.3751,-3.3681,-3.3724,-3.3684,-3.3771,-3.3778,-3.3763,-3.3751,-3.377,-3.3772,-3.3782,-3.3767,-3.3722,-3.3721,-3.3719,-3.3718,0,-3.3804,-3.3761,-3.3851,-3.3828,-3.3824,-3.3894,-3.3874,-3.3924,-3.3895,-3.3959,-3.3971,-3.3926,-3.3971,-3.3923,-3.3965,-3.3938,-3.4055,-3.4024,-3.4055,-3.4046,-3.4143,-3.4135,-3.4465,-3.4505,-3.4191,-3.4194,-3.4197,0,-3.3953,-3.4017,-3.4001,-3.4029,-3.4029,-3.4075,-3.4097,-3.4035,-3.4061,-3.4067,-3.4117,-3.4155,-3.4183,-3.426,-3.4231,-3.4263,-3.4232,-3.4346,-3.4237,-3.4254,-3.4234,-3.4231,-3.4237,-3.4368,-3.4372,-3.4375,-3.4377,0,-3.4221,-3.4197,-3.4231,-3.4259,-3.4288,-3.4307,-3.4319,-3.4347,-3.4283,-3.4317,-3.4363,-3.4385,-3.4428,-3.4468,-3.4491,-3.4485,-3.4422,-3.4412,-3.4436,-3.4455,-3.447,-3.4463,-3.4116,-3.4405,-3.4402,-3.44,-3.4398,-3.4397,-3.4423,-3.4476,-3.4473,-3.4515,-3.4518,-3.4532,-3.4578,-3.4556,-3.4593,-3.4623,-3.4585,-3.4642,-3.4641,-3.4666,-3.4668,-3.4712,-3.4664,-3.4698,-3.4706,-3.4715,-3.473,-3.4464,-3.4716,-3.4715,-3.4714,-3.4714,-3.4713,0,-3.4686,-3.468,-3.4719,-3.474,-3.4773,-3.4711,-3.4722,-3.4754,-3.4805,-3.481,-3.4839,-3.4893,-3.4931,-3.4906,-3.4939,-3.4979,-3.495,-3.4989,-3.4985,-3.4985,-3.4771,-3.4747,-3.5012,-3.5012,-3.5012,-3.5012,-3.5011,-3.5011,-3.4827,-3.4914,-3.489,-3.4978,-3.4971,-3.5026,-3.5038,-3.5051,-3.5054,-3.5118,-3.5149,-3.5133,-3.5126,-3.5158,-3.5191,-3.5182,-3.5198,-3.5248,-3.5229,-3.5029,-3.5,-3.4972,-3.4949,-3.5252,-3.5252,-3.5439,-3.5441,-3.5442]},{"header":{"parameterUnit":"m.s-1","parameterCategory":1,"la1":30.2991,"la2":30.254,"lo1":-89.0895,"lo2":-89.0444,"dy":0.0017,"dx":0.0017,"nx":28,"ny":28,"refTime":"2023-10-05T09:00:00:Z","depth":0,"parameterNumber":3,"parameterNumberName":"V-component_of_WINDS"},"data":[0,0,0,0,0,0,0,0,0,0,0,0,0,0,0,0,0,0,0,0,0,0,0,0,0,0,0,0,0,0,0,0,0,0,0,0,0,0,0,0,0,0,0,0,0,0,0,0,0,0,0,0,0,0,0,0,0,0,0.2856,0.2854,0,0.2654,0.2652,0.265,0.2453,0.245,0.2448,0.2445,0.224,0.2237,0.2234,0,0,0,0,0,0,0,0,0,0,0,0,0,0.3071,0.3068,0.2856,0.2853,0.2851,0.2655,0.2652,0.2649,0.2453,0.245,0.2447,0.2444,0.2241,0.2237,0.2233,0,0,0,0,0,0,0,0,0,0,0,0,0,0.2935,0.3067,0.2856,0.2729,0.2716,0.2655,0.2652,0.2649,0.2454,0.245,0.2446,0.2443,0.2242,0.2237,0.2233,0.2281,0,0,0.2219,0.2217,0,0,0,0,0,0,0,0,0.2943,0.2927,0.2751,0.2738,0.2723,0.2575,0.2652,0.2525,0.2455,0.2554,0.2445,0.2441,0.2354,0.234,0.2311,0.2272,0.2263,0.2218,0.2215,0.2213,0.2212,0,0,0,0,0,0,0,0.2953,0.2935,0.2776,0.2748,0.2731,0.2683,0.2659,0.2627,0.2478,0.2545,0.253,0.2509,0.2346,0.2316,0.2305,0.226,0.2218,0.2214,0.2211,0.221,0.2252,0.2255,0,0,0,0,0,0,0.2981,0.2944,0.2782,0.277,0.2826,0.2682,0.2655,0.2626,0.2478,0.2451,0.2512,0.25,0.2326,0.231,0.2297,0.2344,0.2213,0.2209,0.2206,0.2248,0.2252,0.2257,0,0,0,0,0,0,0.2987,0.2969,0.2791,0.2853,0.2826,0.2682,0.2651,0.2624,0.2594,0.2453,0.2426,0.2509,0.2322,0.2303,0.2287,0.2334,0.2207,0.2203,0.2243,0.2249,0.2254,0.2441,0,0,0,0,0,0,0.2994,0.2972,0.2989,0.2855,0.2824,0.2785,0.2654,0.2623,0.2586,0.2569,0.2443,0.2418,0.2317,0.2295,0.2282,0.2326,0.2199,0.2238,0.2246,0.2253,0.243,0.2452,0.2472,0,0,0,0,0,0.3002,0.3049,0.2991,0.2972,0.2842,0.2788,0.277,0.2653,0.2591,0.2607,0.2517,0.2422,0.2331,0.2295,0.2279,0.2322,0.2235,0.2244,0.2252,0.242,0.2448,0.2471,0,0,0,0,0,0,0.3192,0.3029,0.2962,0.2967,0.2893,0.2755,0.2771,0.2686,0.2627,0.2614,0.2471,0.2444,0.2445,0.2381,0.2343,0.2362,0.227,0.2276,0.2403,0.2428,0.2449,0.2464,0.2195,0,0,0,0,0,0.3235,0.3204,0.3063,0.3081,0.3047,0.2917,0.2888,0.2805,0.2722,0.2689,0.2598,0.2521,0.2475,0.2448,0.2398,0.2419,0.239,0.2441,0.2462,0.248,0.2487,0.2495,0.2517,0.2285,0.2285,0.2285,0,0,0.3322,0.3229,0.3219,0.3117,0.305,0.3022,0.2891,0.2867,0.2845,0.2685,0.2665,0.2595,0.25,0.2504,0.2501,0.2451,0.2545,0.2491,0.2507,0.2504,0.2507,0.2529,0.2548,0.2291,0.229,0.2289,0,0,0.3467,0.3394,0.3401,0.3336,0.3236,0.3148,0.3151,0.3025,0.2973,0.295,0.283,0.2802,0.2726,0.2664,0.2622,0.2746,0.2657,0.2733,0.2843,0.2852,0.287,0.2886,0.2931,0.2949,0.274,0.2741,0.2741,0,0.3589,0.3542,0.3416,0.3399,0.3358,0.3213,0.322,0.3163,0.3052,0.3028,0.2974,0.2875,0.2801,0.2789,0.2819,0.279,0.2788,0.2747,0.2878,0.2892,0.2905,0.2946,0.2964,0.2751,0.275,0.2749,0.2748,0,0.3696,0.3666,0.3684,0.3581,0.3542,0.3537,0.3411,0.3387,0.3307,0.3226,0.3205,0.3111,0.304,0.3031,0.2952,0.3008,0.298,0.2904,0.2809,0.2939,0.2976,0.299,0.2765,0.2762,0.2759,0.2756,0,0,0.3955,0.3783,0.3792,0.3744,0.3623,0.3597,0.3586,0.3517,0.35,0.3428,0.3416,0.3355,0.3284,0.3238,0.3151,0.3159,0.3265,0.3081,0.3077,0.312,0.3321,0.338,0.3401,0.3205,0.3207,0.3209,0.333,0,0.408,0.4052,0.3939,0.3945,0.3916,0.3778,0.3769,0.3694,0.3619,0.3583,0.3498,0.3458,0.3367,0.3338,0.334,0.3252,0.3303,0.3241,0.3193,0.3193,0.3223,0.3419,0.3481,0.3599,0.3343,0.3345,0.3347,0,0.4222,0.4161,0.4165,0.4045,0.4029,0.4023,0.3951,0.3918,0.3831,0.3775,0.3724,0.3627,0.3609,0.352,0.3494,0.3454,0.3428,0.3382,0.3383,0.3375,0.3279,0.3418,0.3634,0.3652,0.3368,0.3366,0.3365,0,0.4413,0.433,0.4322,0.4285,0.4145,0.4145,0.4087,0.3995,0.3962,0.3899,0.3875,0.3812,0.3777,0.373,0.3619,0.3565,0.3606,0.3507,0.356,0.3563,0.3575,0.3576,0.3792,0.3557,0.3557,0.3557,0.3556,0,0.4565,0.4572,0.4405,0.4401,0.4405,0.4276,0.4284,0.4213,0.4134,0.4113,0.399,0.3973,0.3827,0.3794,0.3707,0.3699,0.3684,0.3639,0.3616,0.365,0.3657,0.3632,0.3621,0.3561,0.356,0.3559,0.3559,0,0.4778,0.4666,0.4648,0.4518,0.4486,0.4495,0.4384,0.4374,0.4291,0.4267,0.4254,0.4124,0.4078,0.3963,0.3887,0.3829,0.3845,0.3802,0.3875,0.386,0.392,0.3917,0.4128,0.4149,0.3902,0.3904,0.3906,0,0.4882,0.4885,0.4756,0.4734,0.4681,0.4646,0.4611,0.4484,0.4452,0.4354,0.4357,0.4302,0.4251,0.4185,0.4084,0.4026,0.3981,0.4059,0.3972,0.4007,0.3984,0.3986,0.3986,0.4079,0.4083,0.4085,0.4087,0,0.5081,0.5026,0.498,0.4916,0.4878,0.4821,0.4757,0.4746,0.4603,0.4574,0.4526,0.4487,0.441,0.4358,0.4285,0.4224,0.4134,0.4116,0.4125,0.4161,0.4204,0.4183,0.3929,0.4112,0.4109,0.4107,0.4106,0.4105,0.5243,0.524,0.5149,0.5102,0.5041,0.4985,0.497,0.4886,0.4844,0.4772,0.4699,0.466,0.4573,0.4465,0.4412,0.438,0.4332,0.4345,0.4349,0.4354,0.4371,0.4209,0.4366,0.4365,0.4364,0.4363,0.4363,0,0.5436,0.5371,0.5329,0.5245,0.5209,0.5126,0.5051,0.5027,0.4994,0.4921,0.4874,0.482,0.4769,0.4665,0.4604,0.4599,0.4555,0.4587,0.4587,0.4575,0.4416,0.4415,0.4623,0.4623,0.4623,0.4623,0.4623,0.4623,0.5532,0.5522,0.5457,0.5417,0.5351,0.5312,0.5277,0.5225,0.5166,0.5112,0.5069,0.5001,0.4916,0.4849,0.4798,0.4769,0.4753,0.4799,0.4757,0.461,0.4586,0.4562,0.456,0.4796,0.4797,0.4918,0.4919,0.492]}]]